Zurück zum Katalog

STARLINK-37864

AktivKommunikationSSO
NORAD 100107·PAYLOAD·🇺🇸 United States

Gestartet Jul 21, 2026 von Vandenberg Space Force Base

Loading…

Nächste Überflüge (nächste 24 Stunden)

TLE

AktuellSource: Space-Track

Epoche: Sep 14, 2026, 01:21 UTC

1 A0107U 26166G   26257.05690865  .00064220  00000-0  42824-3 0  9997
2 A0107  97.2834 275.0065 0001269  82.4857 277.6552 15.75187799  8584

Verfolge STARLINK-37864 in Echtzeit mit AllMySat

Download on the App Store